Cloud_Cover
0 0 0 0 0 0 0 0 0 0 0 0 0 38 37 58 98 0 1 5 18 83 24 5 1 0 0 0 0 0 0 0 0 0 0 4 11 5 38 5 0 0 0
0 0 0 0 0 0 0 0 0 0 2 5 4 58 100 97 98 0 0 5 6 5 5 2 5 0 0 0 0 0 0 0 0 0 0 0 0 8 5 18 68 0 0
0 0 0 0 0 0 0 0 0 0 86 97 34 39 77 100 78 7 4 5 5 5 0 0 0 0 0 2 2 0 0 0 0 0 0 0 0 4 3 6 89 4 0
0 0 0 0 0 0 0 0 0 0 4 5 4 13 57 23 8 2 0 0 0 0 0 0 0 0 0 3 5 5 0 0 0 0 0 0 0 0 0 35 12 26 3
0 0 0 0 0 0 0 0 0 2 22 87 16 64 57 5 12 1 0 0 0 0 0 0 0 0 0 1 5 28 17 0 0 0 0 0 0 0 5 64 100 98 0
0 0 0 0 0 0 0 0 0 100 92 20 58 5 82 100 58 0 0 0 0 0 0 0 0 0 1 7 4 20 75 5 0 0 0 0 0 0 3 100 100 100 0
0 0 0 0 0 0 0 2 26 81 22 5 0 0 0 65 8 0 0 0 0 2 5 0 0 0 1 6 5 5 69 5 0 0 0 0 0 0 42 100 100 2 0
0 0 0 0 0 0 0 0 1 7 6 0 1 0 0 0 0 0 3 0 2 5 5 4 0 0 0 5 38 5 77 64 0 0 0 0 0 0 6 84 58 0 0
0 0 0 0 0 0 0 0 0 0 1 0 10 0 0 0 0 0 0 0 2 5 5 8 0 0 0 6 99 54 87 73 2 0 0 0 0 0 8 85 8 0 5
0 0 0 0 0 0 0 0 0 5 43 47 2 1 0 0 0 0 0 0 2 15 5 8 0 0 0 4 64 97 67 52 50 0 0 0 0 0 3 28 5 0 6
0 0 0 0 0 0 0 0 0 97 76 37 30 34 0 6 1 7 0 0 0 29 98 12 3 0 0 5 27 100 84 56 51 0 0 0 0 0 2 38 8 5 31
0 0 0 0 0 1 5 5 48 100 82 67 100 76 76 78 26 55 0 7 1 17 95 11 5 0 0 0 5 93 100 100 21 0 0 0 0 0 3 67 83 91 100
0 0 0 0 0 0 5 19 90 100 75 88 99 63 42 22 43 42 0 0 0 8 30 7 5 2 0 0 5 96 100 100 1 0 0 0 0 0 5 90 97 100 100
0 2 5 5 5 5 6 53 87 100 100 98 47 100 100 33 0 7 0 17 0 5 8 28 5 5 0 2 10 100 100 78 0 0 0 0 0 0 1 59 93 100 100
4 3 5 5 5 78 30 97 64 92 5 100 76 57 100 20 0 0 0 0 0 5 40 48 11 4 0 16 100 100 100 9 0 0 0 0 0 0 5 5 34 100 100
5 4 7 18 50 43 92 84 86 24 29 88 92 100 31 83 5 0 21 0 0 5 78 92 5 5 1 92 100 100 90 3 0 0 0 3 5 0 22 33 90 100 100
5 75 22 5 5 37 100 84 100 67 77 40 88 40 100 12 5 0 34 0 5 7 100 46 6 1 19 100 100 97 9 5 2 0 1 5 5 5 5 59 100 100 100
5 9 72 74 18 59 100 91 88 100 81 100 92 11 100 89 5 39 33 4 36 95 100 69 5 61 100 100 90 19 5 4 0 0 4 9 61 10 22 91 100 100 100
69 52 25 10 5 98 94 88 60 22 97 100 100 31 100 93 56 100 98 56 83 94 96 6 8 72 93 35 5 5 5 5 0 0 11 78 95 100 100 100 100 100 100
33 39 21 3 5 91 96 84 20 100 40 100 100 100 100 88 59 75 99 100 99 83 15 5 98 48 5 4 6 5 3 2 0 3 6 69 100 100 100 100 100 100 100
11 2 1 0 0 68 96 100 100 39 44 100 80 81 94 100 100 100 100 100 96 97 6 5 100 52 63 16 5 5 3 5 5 5 5 65 73 66 100 100 100 100 100
49 39 9 9 8 68 100 100 49 72 76 100 89 100 100 100 100 100 100 100 38 23 31 5 11 97 58 4 5 5 5 61 100 55 99 100 91 86 100 100 100 100 100
78 88 78 68 73 38 83 94 100 98 100 100 100 100 100 100 100 100 100 95 44 68 100 100 10 61 5 5 4 5 13 100 90 76 76 100 100 81 100 100 100 100 100
100 100 100 100 100 100 62 100 99 99 100 98 100 100 100 100 100 100 100 30 90 100 100 96 93 60 5 5 5 5 25 100 94 99 12 100 100 100 100 100 100 100 100
100 100 100 100 100 100 100 100 100 100 100 100 100 100 100 100 100 100 100 100 83 94 100 75 77 5 5 5 60 97 59 24 80 34 71 69 100 100 100 100 100 100 100
100 100 100 100 100 100 100 100 100 100 100 100 100 100 100 100 100 100 100 100 81 81 67 100 50 9 99 66 85 85 100 100 100 100 89 95 100 100 100 100 100 100 99